Regional Weather Roundup
Issued by NWS

Home | Current Version | Previous Version | Text Only | Print | Product List | Glossary Off
Versions: 1 2 3 4 5 6 7 8 9 10 11 12 13 14 15 16 17 18 19 20 21 22 23 24 25 26 27 28 29 30 31 32 33 34 35 36 37 38 39 40 41 42 43 44 45 46 47 48 49 50

000
ASUS43 KBIS 240810
RWRND
NORTH DAKOTA REGIONAL WEATHER ROUNDUP
NATIONAL WEATHER SERVICE EASTERN NORTH DAKOTA/GRAND FORKS ND
300 AM CDT WED MAY 24 2017

  NOTE: "FAIR" INDICATES FEW OR NO CLOUDS BELOW 12,000 FEET WITH NO
  SIGNIFICANT WEATHER AND/OR OBSTRUCTIONS TO VISIBILITY.

NDZ001>003-009>011-017-240900-
...NORTHWEST NORTH DAKOTA...

CITY           SKY/WX    TMP DP  RH WIND       PRES   REMARKS
WILLISTON      FAIR      56  36  47 S13       29.77F
MINOT          FAIR      55  38  52 S15       29.83F
MINOT AFB      FAIR      53  38  57 S15       29.82F
$$

NDZ018>021-031>035-040>046-240900-
...SOUTHWEST NORTH DAKOTA...

CITY           SKY/WX    TMP DP  RH WIND       PRES   REMARKS
BISMARCK       FAIR      42  38  85 CALM      29.90F
DICKINSON      FAIR      44  34  67 S14       29.83F
GARRISON         N/A     46  37  71 S9        29.86F
HETTINGER      FAIR      42  34  73 SE8       29.88F
$$

NDZ004>008-012>016-024-026-027-054-240900-
...NORTHEAST NORTH DAKOTA...

CITY           SKY/WX    TMP DP  RH WIND       PRES   REMARKS
GRAND FORKS    FAIR      41  39  93 CALM      29.88F
GRAND FORKS AF FAIR      42  40  94 CALM      29.89F
DEVILS LAKE    FAIR      46  41  82 SW3       29.89F
$$

NDZ022-023-025-028>030-036>039-047>053-240900-
...SOUTHEAST NORTH DAKOTA...

CITY           SKY/WX    TMP DP  RH WIND       PRES   REMARKS
JAMESTOWN      FAIR      39  37  92 CALM      29.89F
FARGO          FAIR      41  40  96 N6        29.89S
WAHPETON       CLOUDY    43  41  93 N5        29.87S
$$




USA.gov is the U.S. government's official web portal to all federal, state and local government web resources and services.